Theta_e
332 334 334 335 335 335 336 338 339 339 339 339 340 340 341 340 341 339 340 341 340 339 340 339 339 339 339 338 338 340 341 341 341 342 341 341 344 344 344 344 343 343 344 344 343 342 340 339 336 337 340 337 337 336 338 339 340 340 340 340 338 336 338 340 340 338 334 332 333 334 334 338 335 333 334 335 335 336 337 336 338 338 338 336 336
331 331 332 333 333 334 334 335 337 335 335 337 337 338 340 340 340 339 339 340 340 341 341 340 341 340 339 339 340 340 340 338 339 341 341 341 343 342 343 343 345 342 343 343 344 344 342 338 338 337 338 338 337 338 338 338 339 338 338 337 339 337 337 339 338 335 330 329 326 327 330 333 333 333 333 335 336 334 337 338 339 337 336 336 336
326 329 330 331 331 331 332 333 335 335 335 335 337 337 337 338 339 339 339 339 340 340 340 339 341 342 341 341 340 340 343 342 341 341 342 341 341 342 342 343 344 342 343 343 343 344 342 338 337 337 337 337 336 336 341 338 339 337 338 337 336 338 336 339 339 338 330 331 332 328 323 322 329 330 335 334 334 336 337 335 335 334 333 334 334
318 320 324 328 329 329 330 332 335 336 336 336 336 336 337 337 338 338 338 340 340 340 339 341 342 342 343 343 343 341 340 340 341 342 341 341 340 342 342 344 343 343 343 342 343 345 345 344 342 340 338 338 338 336 334 334 336 336 337 338 337 332 332 334 339 338 337 330 324 323 326 324 320 325 328 333 336 336 335 334 334 333 334 333 334
315 316 317 319 322 322 323 326 329 331 332 332 333 334 336 337 338 339 339 339 339 340 340 340 341 341 341 341 341 339 340 337 338 338 338 338 339 341 341 341 341 341 341 343 344 345 344 343 340 336 335 337 337 336 335 333 339 340 338 337 335 333 332 336 337 339 335 336 331 325 323 321 323 326 328 328 333 332 333 333 334 333 333 332 331
314 313 314 315 317 319 319 320 323 326 328 330 331 332 333 333 335 336 339 339 339 340 342 341 340 339 337 335 333 333 331 332 334 335 337 337 336 340 341 340 340 341 342 342 342 341 342 341 338 334 335 336 336 336 337 337 335 339 338 337 333 335 335 334 333 336 335 336 335 336 331 324 324 327 326 321 332 333 331 331 333 334 335 332 332
315 315 314 314 315 316 317 318 320 322 324 326 328 331 332 332 333 334 335 336 338 339 341 341 340 340 338 336 336 334 332 335 338 340 339 338 340 339 340 342 341 339 341 342 341 340 341 342 340 337 336 336 335 335 335 334 337 336 337 337 337 336 336 331 332 333 336 336 336 334 337 334 332 328 322 328 322 326 328 329 331 332 334 333 331
311 312 313 313 314 314 315 317 318 320 323 324 325 327 328 329 330 332 333 335 338 340 340 341 339 339 338 336 335 335 336 335 339 340 341 339 339 339 340 340 341 341 341 341 340 340 339 338 338 337 336 336 336 334 333 336 336 338 340 337 337 332 333 333 333 334 331 331 333 333 337 338 335 333 332 328 324 319 322 329 332 333 333 334 335
310 310 311 312 312 313 314 315 318 319 321 322 323 324 326 328 330 332 333 334 335 337 339 341 340 339 339 338 336 336 337 337 337 338 337 338 338 338 339 340 342 344 340 337 339 338 337 337 338 337 336 334 335 335 335 337 336 335 335 333 334 332 332 335 335 333 333 333 333 334 335 333 332 333 332 331 326 322 321 324 326 331 332 333 334
311 311 312 313 314 315 316 318 318 318 320 322 323 324 324 325 326 328 330 332 332 335 338 339 340 340 339 341 338 336 337 337 339 337 337 338 336 337 338 340 339 339 342 340 338 338 338 336 337 337 338 336 335 336 335 335 336 334 334 336 337 334 336 336 335 334 335 333 330 334 333 332 330 330 331 330 328 325 320 323 327 326 324 329 332
311 312 312 313 314 315 317 317 318 319 320 321 322 322 323 323 324 325 325 327 330 332 335 335 336 338 338 339 338 337 337 336 337 337 336 336 335 335 335 338 340 339 341 341 340 340 337 337 337 337 338 337 335 335 334 335 334 336 335 334 338 335 335 336 331 333 333 334 334 334 333 333 329 328 329 330 329 325 323 323 326 324 324 326 330
311 312 312 313 314 316 317 317 318 319 318 318 320 321 321 322 322 323 325 325 327 329 331 332 334 334 335 334 334 335 336 335 334 334 334 335 335 334 335 336 336 337 339 339 337 337 335 336 337 336 336 336 335 337 337 335 335 336 335 338 335 333 336 334 335 334 335 335 334 333 334 334 334 332 331 332 331 329 327 325 325 326 325 327 330
310 311 311 312 312 313 313 315 316 316 317 318 319 320 319 320 321 321 322 324 325 327 328 329 330 332 333 332 333 333 333 333 333 332 334 335 335 335 334 333 335 334 337 338 336 336 337 337 336 336 336 336 337 336 337 335 334 334 335 336 334 332 334 335 332 335 337 334 332 338 334 331 331 332 333 332 332 332 330 326 326 327 324 324 328
308 309 310 310 310 312 312 313 314 314 316 316 317 319 320 318 319 318 319 320 322 323 325 327 328 329 331 332 332 333 332 333 332 332 333 333 334 334 334 333 333 335 337 336 335 336 336 337 338 338 336 335 336 337 336 335 332 332 333 335 334 333 335 333 331 334 338 338 334 335 334 333 332 334 331 333 332 331 327 326 326 326 327 323 327
307 307 307 308 309 310 311 312 313 313 314 315 316 316 318 319 319 317 317 318 319 320 323 325 326 328 329 331 332 332 332 332 333 333 333 332 333 333 333 333 333 335 337 339 336 336 335 336 336 337 337 336 335 334 334 332 332 332 332 332 333 335 335 335 334 336 336 335 335 335 335 334 333 333 334 335 333 334 331 328 327 324 324 324 322
305 306 306 307 308 309 309 310 311 312 313 314 314 314 315 316 318 318 317 318 319 319 322 322 324 326 328 329 330 332 332 332 332 333 333 333 333 333 334 335 335 336 337 338 338 336 336 337 336 335 335 334 332 332 332 331 331 330 331 332 331 334 334 332 332 337 338 336 333 333 335 334 336 333 334 334 333 334 333 332 331 328 323 319 322
305 305 306 307 307 308 309 310 311 312 312 313 313 314 315 315 315 317 317 318 319 321 323 323 323 324 325 326 327 328 329 331 331 333 333 334 335 334 333 334 335 336 336 337 337 337 337 336 335 335 334 333 333 332 332 332 332 332 332 332 332 334 334 332 335 335 337 337 334 333 334 335 334 335 335 333 335 335 334 333 332 329 327 323 320
305 306 306 306 306 307 310 311 311 311 312 312 313 315 315 316 316 315 315 316 317 318 319 321 321 322 323 324 325 326 326 328 331 332 333 333 334 334 335 333 333 334 335 335 335 334 336 336 336 335 334 332 332 332 331 331 331 331 333 333 334 335 333 334 331 332 335 337 334 332 335 333 334 335 336 336 335 336 334 333 333 331 330 326 324
304 305 304 305 306 307 310 311 311 312 313 313 313 314 314 316 316 315 315 315 316 317 318 319 320 320 321 322 322 322 323 325 328 331 333 333 333 334 334 334 334 334 334 334 334 333 334 334 335 335 334 332 332 331 331 330 332 331 332 333 333 333 332 331 332 334 334 336 333 333 332 331 335 337 336 336 337 336 336 335 333 333 332 330 326
304 304 304 305 307 308 309 310 310 311 312 313 314 314 314 314 314 315 316 317 317 317 318 317 318 319 320 321 322 321 322 324 326 327 330 331 332 333 333 333 333 334 334 333 332 333 334 334 334 334 333 332 330 330 331 329 330 330 332 331 331 332 331 329 331 333 334 333 330 329 332 334 332 334 335 337 336 337 337 333 333 333 331 332 330
304 304 305 306 307 308 309 310 310 311 312 313 313 313 313 314 314 315 315 315 315 316 316 316 317 317 318 319 320 321 322 322 324 327 327 329 332 333 333 333 332 331 333 333 332 332 333 334 334 334 334 333 331 329 330 330 331 330 333 333 332 331 330 332 333 332 334 330 330 330 333 333 335 335 335 336 335 335 335 333 334 333 331 333 330
305 306 306 306 307 308 308 309 310 310 310 311 312 312 312 313 314 314 314 314 314 314 315 316 317 317 317 318 319 320 321 322 323 325 325 326 328 331 332 332 331 331 331 331 331 332 332 333 333 332 332 333 332 330 329 330 330 330 330 332 331 331 330 332 333 332 330 332 334 333 333 335 336 335 335 333 334 333 333 332 331 332 330 331 333
305 306 306 306 307 307 307 308 308 309 309 310 311 311 311 312 312 312 312 313 314 314 315 316 316 316 316 317 317 317 318 320 321 322 322 323 325 328 330 331 330 330 331 331 331 331 331 331 331 332 332 334 335 331 330 328 328 330 330 331 330 330 330 331 332 333 332 332 332 333 333 334 335 332 333 333 333 334 332 331 331 331 330 331 331
306 306 305 306 306 307 307 306 306 307 308 309 310 310 311 311 311 311 311 312 313 313 314 315 315 316 317 317 316 316 317 317 318 319 319 321 322 324 326 328 330 331 330 331 331 331 331 330 330 331 333 334 335 331 330 330 329 330 329 329 329 330 331 330 330 330 331 331 331 332 333 334 332 329 331 332 333 333 332 331 330 331 331 330 332
304 304 304 305 305 305 305 305 305 306 307 308 308 308 309 310 311 310 311 312 312 312 313 314 315 315 315 315 315 316 315 315 315 316 318 319 320 321 324 326 329 330 330 330 331 331 331 331 331 331 332 334 334 332 330 330 330 332 331 329 329 329 329 330 330 331 330 331 331 331 332 330 327 328 329 329 331 332 332 331 329 329 330 332 332
303 303 303 303 303 304 304 305 305 305 305 306 306 307 308 309 310 312 311 311 311 312 313 313 313 313 314 314 314 314 314 314 314 315 316 317 319 320 321 324 327 328 329 330 330 331 330 331 331 330 332 333 334 332 331 330 328 329 331 331 329 329 330 330 332 332 331 331 330 330 330 329 328 332 332 332 334 334 333 332 330 329 330 331 332
302 302 303 303 303 303 304 304 304 305 305 305 305 305 306 307 309 310 310 310 311 311 312 312 313 313 312 313 313 313 312 313 313 314 315 316 318 318 318 320 323 326 328 328 329 330 331 331 332 333 332 332 333 333 333 332 330 329 328 329 327 328 329 331 332 332 332 329 330 331 331 332 331 333 331 335 332 335 334 334 333 333 331 329 330
302 302 301 301 302 303 303 304 304 304 305 304 305 305 305 306 306 307 309 310 311 311 311 311 311 311 311 312 312 312 312 312 312 313 314 315 315 317 319 319 321 323 326 328 329 330 331 331 332 331 332 333 333 333 334 333 331 330 328 329 329 328 329 331 333 332 331 330 329 332 334 331 329 330 331 333 336 335 335 335 335 334 333 331 330
299 300 300 300 301 302 303 303 303 304 304 304 304 304 305 305 305 306 308 309 310 310 311 310 310 310 310 311 311 311 312 312 311 311 312 312 313 315 316 319 321 322 324 327 328 329 329 329 331 331 332 333 333 334 334 334 331 329 330 329 329 328 329 329 331 332 331 331 331 332 331 331 332 332 324 326 327 328 335 334 336 336 335 333 331
297 298 299 300 301 302 302 303 303 303 303 303 304 304 304 304 304 304 306 308 309 309 309 309 309 309 310 310 310 311 311 311 310 310 310 310 311 312 313 313 316 320 324 326 327 329 329 330 330 330 332 331 333 335 328 316 318 329 330 331 331 328 329 328 328 326 326 329 327 330 330 325 322 322 318 313 311 316 322 331 335 335 334 333 331
296 297 298 300 301 301 302 302 302 303 303 303 304 304 305 304 304 304 304 307 308 308 308 308 308 309 309 310 309 309 310 310 310 309 309 309 309 309 310 310 311 313 316 322 326 326 328 330 328 326 325 328 333 332 314 305 307 312 327 330 329 329 328 328 327 328 327 325 329 333 334 329 327 320 321 305 306 307 309 310 313 317 323 334 330
296 297 298 298 299 299 300 301 302 303 303 303 303 304 304 303 304 303 304 306 307 307 307 308 308 309 309 308 308 308 309 309 309 308 308 308 308 307 307 307 308 308 309 313 320 324 327 327 328 327 326 329 329 319 307 303 304 304 314 328 329 327 327 329 329 328 325 329 332 332 331 333 332 332 332 325 314 304 303 303 304 306 308 309 309
296 297 298 298 298 299 300 302 302 302 302 303 304 304 304 304 304 304 305 305 306 306 307 307 308 308 307 308 307 307 307 308 308 308 308 307 306 305 305 305 305 306 307 307 307 309 313 319 322 324 326 327 329 313 302 302 303 302 302 318 330 328 327 328 325 329 330 328 328 328 328 329 330 322 328 331 331 324 305 301 303 305 305 304 302
298 298 298 298 299 300 300 301 302 303 304 304 305 305 305 305 305 305 304 304 305 305 306 306 307 307 307 307 307 307 306 307 307 307 307 306 305 304 304 305 305 304 303 303 304 306 308 309 310 311 317 324 318 295 294 295 296 297 299 306 330 329 329 328 327 327 328 328 329 329 332 331 330 329 330 331 332 329 324 321 322 324 327 314 300
297 298 298 299 299 300 301 302 302 303 303 304 304 305 305 305 305 304 304 304 304 305 305 306 306 306 306 307 307 306 306 306 307 307 307 306 305 305 304 304 303 303 301 300 301 302 303 305 306 307 310 314 309 293 292 293 294 293 295 298 326 327 327 329 331 329 330 333 332 332 330 331 330 330 331 329 332 330 328 327 327 327 329 327 328
297 298 299 299 300 300 301 301 302 303 303 304 304 305 304 304 304 304 303 303 303 304 304 305 305 305 305 306 306 306 305 306 306 306 305 305 305 304 304 304 303 302 302 301 301 301 300 301 302 302 304 307 309 293 292 292 293 295 293 309 323 325 325 327 331 333 332 331 333 333 332 331 331 330 318 307 316 329 328 327 327 327 325 319 313
298 299 298 300 301 301 301 302 302 303 303 303 304 304 304 303 303 303 303 303 303 302 303 304 304 304 305 305 305 305 305 305 306 305 304 304 304 304 304 304 303 302 301 300 300 299 300 299 299 300 300 302 305 297 292 291 292 292 295 313 322 325 327 328 329 330 332 332 334 334 333 331 328 328 311 303 305 311 329 327 325 323 321 319 314
299 299 298 299 300 301 301 302 302 303 303 304 304 303 303 302 302 302 302 302 302 302 302 303 304 304 304 305 305 305 305 305 305 304 304 305 305 305 304 304 303 302 301 301 300 300 300 300 298 298 298 298 300 298 292 291 291 292 295 311 323 324 324 325 326 327 328 330 324 314 327 329 327 327 299 302 300 314 328 326 324 321 319 316 314
297 297 297 298 300 300 300 301 301 301 302 303 303 303 302 301 301 302 302 302 301 302 302 303 303 305 305 305 305 305 305 304 304 304 304 304 304 304 305 305 304 304 304 303 301 300 299 299 299 299 299 298 299 298 293 291 291 291 301 312 317 323 322 323 322 322 323 324 321 315 306 316 322 317 297 299 298 311 327 325 323 321 317 316 314
298 298 300 299 300 299 299 299 299 301 303 302 302 302 301 301 301 301 301 301 301 302 303 303 304 304 305 305 306 305 304 304 304 304 304 304 304 304 304 304 304 304 304 304 303 301 299 299 300 299 298 298 297 298 295 291 291 292 293 308 313 316 320 321 321 319 318 320 320 319 309 296 302 298 297 297 298 297 320 324 323 321 318 314 315
297 297 298 298 298 298 297 298 299 301 302 302 301 301 300 300 301 301 300 301 302 303 303 303 303 303 304 304 304 305 305 305 305 304 304 304 304 303 303 302 302 302 303 303 303 303 302 300 299 299 298 298 297 297 296 291 291 291 292 299 310 307 309 315 318 317 316 316 317 317 315 295 293 295 296 295 297 295 300 324 322 321 320 316 311
298 298 298 299 298 298 299 300 300 301 301 301 301 300 300 300 300 300 301 302 303 303 303 303 303 303 303 303 304 304 305 305 304 304 304 303 303 303 303 302 301 301 300 300 301 301 302 301 301 300 299 298 298 296 296 293 291 291 291 293 303 303 303 310 310 309 309 311 312 312 310 295 291 292 292 292 292 294 297 319 313 298 297 299 314
297 296 297 299 298 298 299 300 300 301 301 301 301 300 300 300 299 301 302 302 302 303 303 303 302 302 302 303 303 303 304 304 304 304 303 302 302 302 302 302 301 301 300 299 299 299 299 299 300 301 300 299 298 298 294 295 292 291 291 291 291 297 295 303 301 301 301 301 302 302 298 292 291 291 292 293 294 295 298 300 293 295 295 297 303
298 298 298 299 299 299 299 300 301 301 302 302 301 299 299 300 300 302 302 302 302 302 302 302 302 302 302 302 302 302 303 303 303 304 303 302 301 302 301 301 300 300 299 298 298 298 297 297 297 298 299 300 300 299 295 293 294 292 291 291 290 291 293 297 298 297 296 296 296 296 294 290 290 291 291 291 292 294 296 292 293 295 297 300 310
297 297 299 299 298 299 299 299 300 301 302 302 301 300 299 299 301 302 302 302 302 301 301 301 302 301 302 302 302 302 302 302 303 302 302 301 301 301 300 300 300 299 298 298 297 297 296 296 295 294 295 297 299 299 297 294 293 293 292 292 291 291 291 292 295 295 295 294 291 290 291 291 292 292 292 293 293 292 291 292 293 295 300 305 304
297 297 298 297 298 299 299 299 299 301 301 302 302 301 299 300 301 302 302 302 301 301 301 301 301 301 301 301 301 301 301 301 302 301 301 301 301 300 299 299 299 298 298 298 297 297 297 296 294 294 294 294 295 296 296 297 295 295 294 293 293 292 293 292 293 292 291 291 291 291 291 292 293 294 297 297 296 295 291 292 293 297 303 303 303
296 297 297 297 298 297 298 298 298 300 300 300 300 300 300 301 301 302 302 302 301 301 300 300 301 300 301 301 301 300 300 301 301 300 300 300 300 300 299 298 298 298 298 298 297 297 297 296 295 295 295 294 294 294 294 295 295 296 296 296 296 296 295 295 297 298 296 296 294 294 293 292 292 291 292 292 293 294 295 297 297 297 298 299 300
297 298 298 298 298 297 297 297 297 298 299 299 299 299 300 300 301 302 302 301 300 300 300 300 300 300 300 300 300 293 297 299 300 300 299 299 299 300 299 297 296 296 297 297 298 297 296 296 296 296 296 296 294 293 293 293 294 294 295 296 295 295 294 294 295 296 297 297 297 294 294 295 295 295 295 295 294 294 294 294 296 297 297 296 295
296 297 297 298 298 297 297 297 297 298 298 299 299 300 300 301 301 302 302 301 300 299 300 300 300 299 299 300 300 300 299 299 299 299 300 299 298 298 297 298 297 296 295 296 297 297 297 298 299 296 294 294 294 293 292 288 291 290 290 293 293 293 293 293 292 291 296 295 295 294 293 294 293 290 291 292 293 293 292 293 294 295 295 296 296
297 298 298 298 298 298 297 296 297 298 298 299 300 300 301 300 301 302 302 301 300 300 300 300 299 299 300 299 300 299 299 299 299 299 299 298 288 290 295 298 297 290 288 288 289 293 294 297 299 298 294 291 290 291 288 287 288 289 289 289 289 289 289 292 291 291 293 292 291 291 291 291 291 291 290 289 289 291 290 290 291 290 293 294 294
297 297 297 297 297 297 297 297 298 299 299 299 300 300 301 301 302 302 302 301 300 299 298 299 299 299 297 299 299 299 299 299 299 299 299 298 299 295 288 289 290 290 289 288 288 288 288 288 292 296 295 289 288 288 287 288 288 288 288 288 288 289 289 289 290 291 290 289 289 288 288 289 289 290 288 289 289 289 288 288 289 290 291 290 290
Wind_Speed
8 8 9 8 6 5 5 3 4 3 2 1 1 2 3 3 3 3 4 5 4 6 7 7 7 6 6 7 9 9 9 9 8 8 8 7 8 8 8 7 8 8 8 7 7 6 5 7 5 6 6 6 7 9 10 10 10 9 8 7 9 8 6 7 7 7 7 5 4 6 6 6 7 7 6 6 6 6 5 5 4 4 4 4 4
9 9 9 8 8 8 6 4 4 5 3 2 1 1 2 2 2 1 2 4 4 4 5 6 6 6 7 8 8 8 8 9 9 8 8 7 7 8 8 9 8 8 9 9 8 8 7 6 7 6 5 3 6 7 9 8 9 8 9 8 8 8 7 8 8 8 8 7 7 7 6 6 7 7 8 7 7 6 5 5 5 5 5 5 4
12 11 9 9 9 7 5 4 5 5 4 3 2 1 1 1 1 1 0 2 4 6 6 6 7 7 8 7 8 7 6 6 8 8 8 9 9 8 8 8 9 9 10 10 8 8 8 9 8 8 6 4 5 6 5 8 7 12 11 9 7 8 8 8 9 10 8 9 8 8 8 8 6 7 7 7 6 5 5 6 5 6 6 6 5
13 13 13 12 12 12 11 9 8 6 5 5 4 3 1 2 2 2 2 3 2 4 5 6 6 6 8 8 6 6 4 6 9 8 8 9 11 10 9 8 9 8 9 10 8 8 8 8 6 6 7 7 7 4 5 9 9 11 10 10 8 9 9 9 10 11 5 8 9 9 8 8 8 8 9 7 7 7 6 6 6 6 6 6 5
11 12 13 12 12 13 12 12 10 10 10 9 9 8 6 6 2 3 2 1 2 3 5 6 6 6 6 7 6 7 6 7 8 8 8 9 9 10 10 10 10 10 10 10 8 8 9 9 8 8 8 8 8 7 7 10 8 7 10 9 10 9 10 9 10 10 10 9 7 7 4 7 7 7 10 8 8 7 8 7 6 6 6 6 6
11 12 11 11 11 11 12 12 12 11 11 10 8 8 8 8 9 8 6 4 2 2 3 5 5 6 6 6 6 6 6 8 9 8 6 7 8 8 10 10 11 11 11 10 10 10 10 10 11 10 11 9 8 8 7 7 10 8 8 9 12 14 10 10 8 9 11 8 10 6 3 2 6 7 10 8 7 6 7 8 8 8 6 7 5
11 12 12 13 13 13 13 13 13 12 11 10 10 10 9 8 8 7 5 3 2 1 2 4 5 6 7 7 7 6 7 8 7 6 6 6 6 8 8 9 10 10 11 10 9 11 10 9 9 11 11 9 7 7 8 9 8 10 10 8 8 7 9 9 10 10 10 11 8 10 5 4 5 6 9 5 8 5 8 9 8 8 8 7 7
10 11 12 12 12 13 13 12 11 11 10 10 10 9 10 10 9 7 5 5 5 4 3 4 6 6 7 7 6 7 9 9 7 7 6 6 7 8 7 7 7 8 9 9 8 11 10 10 10 11 11 10 8 8 9 9 8 8 9 9 7 6 7 10 10 10 11 9 11 10 8 6 3 7 8 8 7 9 7 8 8 8 7 7 7
11 11 11 12 12 12 12 11 11 11 11 10 9 9 9 9 9 7 6 5 6 6 6 5 5 6 5 5 7 7 7 7 6 6 6 5 7 7 7 6 6 7 7 7 7 9 10 11 12 12 12 12 12 10 9 9 10 10 11 12 10 9 10 13 10 10 11 10 8 10 9 9 8 6 6 7 5 6 8 11 10 8 7 7 7
9 10 11 11 11 12 11 11 12 11 10 10 10 10 10 10 10 10 10 8 6 8 7 7 6 4 5 6 7 8 7 7 6 6 6 5 7 7 7 6 6 7 8 9 9 9 9 11 11 12 12 12 12 12 11 12 10 11 12 11 11 12 11 13 10 9 9 9 12 10 9 9 8 8 8 9 9 11 9 11 11 11 10 8 8
9 9 10 11 10 11 11 12 12 12 10 11 11 11 10 10 11 10 10 8 9 9 9 8 7 6 4 5 7 9 9 9 8 8 6 6 6 7 7 6 6 6 6 8 9 9 9 11 10 11 11 10 11 12 10 9 9 10 10 12 9 8 7 10 6 7 10 9 10 10 10 10 9 9 8 8 8 7 7 9 10 12 11 9 9
8 9 10 10 11 12 12 13 13 12 12 12 11 11 11 10 10 10 10 10 9 9 9 8 8 6 6 6 7 7 9 8 8 8 8 8 7 7 7 7 7 7 6 6 7 7 8 11 11 11 10 11 11 8 7 9 8 8 8 6 8 10 7 9 9 12 12 8 7 9 10 8 9 9 8 8 8 7 7 7 9 9 9 8 9
9 10 10 11 11 12 13 13 12 13 13 13 13 11 11 10 11 11 11 10 9 9 9 9 8 8 7 6 6 6 7 7 8 8 8 8 7 7 8 8 8 8 7 7 8 10 9 9 10 10 10 10 9 11 9 11 10 9 10 11 11 10 8 8 7 11 11 10 9 7 8 10 9 10 7 8 8 7 7 6 8 9 8 8 9
10 10 11 11 12 12 12 12 12 12 13 12 12 11 10 10 11 11 11 10 9 9 9 9 8 8 8 8 7 6 6 6 6 7 7 7 7 7 8 8 8 8 7 8 7 9 9 10 10 11 11 10 10 9 10 10 9 8 9 10 12 10 9 11 13 15 10 7 5 8 9 9 8 6 4 5 8 9 8 8 7 7 8 9 7
10 10 11 11 11 12 11 11 11 11 12 12 11 11 11 10 10 12 11 11 10 9 9 10 9 8 7 8 8 6 6 6 6 6 6 6 7 8 9 8 9 9 8 7 9 8 9 10 12 11 10 8 8 10 9 10 9 8 9 10 10 9 8 8 9 12 10 9 10 10 9 8 7 8 7 9 8 8 8 8 8 9 8 9 8
9 9 9 10 10 10 10 10 10 11 12 11 12 10 10 11 11 11 10 10 10 10 10 9 9 9 9 9 8 9 8 7 7 6 6 6 8 8 9 9 9 9 9 8 9 10 11 12 12 12 12 10 9 8 9 10 10 11 11 10 10 9 11 12 14 13 10 11 10 12 9 10 7 9 11 9 8 8 8 8 8 9 9 9 8
8 8 9 9 9 9 9 10 10 11 11 11 12 11 11 11 11 12 12 11 12 11 10 10 10 10 10 10 10 10 10 11 10 9 8 8 8 8 9 9 9 9 8 8 9 10 10 10 10 11 12 11 12 11 11 12 11 12 12 11 10 9 9 11 9 11 10 10 8 11 11 8 10 8 9 9 8 7 8 8 9 8 8 8 9
8 9 9 9 9 10 10 10 11 11 11 11 11 11 10 9 11 11 12 13 13 12 11 10 11 11 10 11 11 11 10 10 11 11 9 8 8 8 8 8 9 9 8 8 7 9 9 11 10 10 11 12 11 12 11 12 12 11 11 10 10 10 11 9 9 13 11 9 8 8 10 11 9 8 7 9 9 8 8 8 9 9 8 8 7
9 9 9 9 10 10 11 11 11 11 10 10 10 10 10 10 10 11 12 12 12 11 10 9 10 8 9 11 11 11 10 10 10 11 11 9 9 9 8 8 8 9 9 9 9 10 10 10 10 11 11 13 13 11 9 10 11 11 10 9 10 10 10 10 12 11 9 8 8 7 8 10 8 7 9 10 9 9 8 8 8 9 9 10 10
9 9 9 9 10 10 11 10 11 10 10 10 11 10 11 11 11 11 11 11 12 12 11 10 10 10 11 11 11 10 10 10 10 10 10 11 11 10 9 9 9 8 9 9 9 10 11 10 10 10 11 11 12 11 12 12 12 11 9 8 8 10 10 12 11 9 8 7 9 11 13 5 8 9 11 10 10 9 7 7 8 8 9 9 5
8 8 8 9 9 10 10 10 9 9 9 9 9 10 10 10 12 12 13 13 13 12 12 11 11 11 12 12 12 12 12 10 11 11 10 9 10 11 10 9 9 10 10 9 10 10 10 10 10 10 11 10 11 11 8 8 9 9 8 9 10 12 13 11 9 10 7 10 12 14 14 14 12 12 10 10 10 10 9 8 8 8 9 9 8
9 9 9 8 9 9 9 9 9 10 11 12 11 10 11 12 12 12 12 13 13 13 12 11 12 12 13 13 13 11 11 11 11 11 10 10 10 10 10 9 10 9 10 10 11 9 9 10 10 9 10 10 11 11 11 10 10 11 11 9 9 10 12 12 12 12 11 11 12 14 13 12 12 11 10 10 9 10 11 10 10 10 10 10 9
9 9 8 8 9 9 10 11 11 11 11 12 11 11 11 12 12 11 13 14 13 13 13 12 12 13 13 13 12 12 12 13 12 10 10 11 10 11 11 10 9 9 9 10 10 10 10 9 9 10 10 10 10 10 8 8 10 10 10 9 8 8 11 12 13 12 13 13 13 11 11 11 8 9 10 7 7 9 12 12 12 10 10 10 11
9 8 8 9 9 10 10 11 12 12 12 12 11 12 11 12 13 13 14 15 14 13 12 13 13 13 13 13 13 13 13 13 13 11 12 12 11 10 10 11 10 8 9 9 10 10 10 9 9 11 12 12 10 10 9 10 12 13 11 10 11 11 10 10 13 14 14 13 15 13 12 8 6 10 10 9 9 13 14 12 13 11 10 10 9
9 10 10 11 11 12 12 11 11 12 11 11 12 12 12 12 13 13 14 14 13 13 13 13 14 14 13 13 14 13 13 14 13 11 13 13 12 10 9 11 11 10 9 9 9 9 10 10 11 11 12 12 11 11 10 8 7 7 9 10 11 10 10 11 14 13 13 12 13 14 12 11 11 13 12 14 15 17 13 12 12 11 10 10 8
10 10 11 12 11 11 11 12 11 12 11 12 12 12 12 12 13 13 13 13 13 13 13 13 13 13 13 14 13 13 14 15 14 13 13 12 12 11 11 10 10 11 10 9 10 9 9 11 11 10 12 10 9 9 11 11 10 9 9 8 8 10 11 12 14 13 13 10 13 13 12 11 13 13 10 15 12 15 13 13 13 12 11 10 9
10 10 10 10 11 12 11 11 11 11 11 11 11 12 11 11 11 11 11 12 12 12 12 12 13 13 13 14 14 14 14 14 14 13 12 12 13 12 11 11 11 11 10 9 9 10 10 11 10 10 9 10 10 12 12 12 13 10 10 9 8 9 12 13 13 13 10 11 11 11 11 10 11 11 16 14 15 14 11 12 12 11 11 11 10
9 10 11 10 10 10 10 10 11 11 11 11 11 11 11 11 11 11 11 11 11 12 12 13 13 13 14 14 14 14 14 14 14 13 13 12 12 12 12 11 10 11 10 9 9 10 11 10 9 10 11 10 11 10 10 11 11 11 11 10 9 12 14 14 13 13 11 11 11 11 9 11 11 13 15 15 13 11 11 11 10 10 11 11 10
10 10 10 10 10 9 10 10 10 11 11 11 10 11 11 11 11 11 11 11 12 13 13 13 13 14 14 14 14 13 13 14 15 14 14 14 14 13 12 11 10 9 8 9 9 9 10 10 10 11 12 10 10 10 10 10 11 13 11 12 13 14 13 12 11 9 7 6 6 8 11 13 16 12 10 6 7 8 10 11 10 9 10 10 10
10 10 9 9 9 9 9 9 10 11 11 11 10 10 11 11 11 12 12 11 11 12 14 13 13 14 14 15 14 14 15 15 15 15 15 15 15 14 13 13 13 11 10 9 9 10 10 10 10 9 8 10 10 9 8 11 12 11 13 11 9 10 10 8 8 9 14 13 15 15 12 14 11 11 11 11 10 8 6 8 9 10 9 7 5
9 9 9 8 9 9 9 10 10 11 11 10 10 10 10 11 11 11 12 11 11 12 13 13 14 14 14 14 14 14 15 16 16 15 15 15 16 13 13 13 12 12 12 11 9 9 10 9 9 8 10 11 8 7 8 11 14 13 11 7 7 7 8 10 10 10 7 9 13 11 12 12 13 9 8 11 10 10 10 6 3 4 4 8 8
9 9 8 8 9 9 10 10 10 10 10 10 10 9 10 11 11 11 11 11 11 12 12 14 13 14 14 15 14 15 16 16 17 17 16 16 15 15 14 13 12 13 12 12 11 10 10 9 7 7 8 8 9 7 7 11 14 13 12 8 8 6 7 10 12 12 12 13 11 9 8 8 10 12 11 8 8 10 10 10 9 8 4 1 1
8 8 8 8 8 9 9 9 9 9 10 10 9 9 10 10 11 11 11 11 11 12 12 13 14 14 15 14 15 15 16 16 17 17 16 16 16 15 16 15 15 13 11 11 12 13 12 12 11 10 9 7 7 6 8 10 13 13 12 12 10 9 7 8 9 10 9 10 11 12 13 10 10 10 10 12 12 8 4 4 7 4 1 3 6
8 8 8 8 8 8 8 9 9 9 9 9 9 9 9 10 10 11 12 11 11 12 12 13 14 15 15 15 15 15 16 16 16 16 16 16 17 16 15 14 13 13 12 12 12 13 13 12 12 11 10 8 7 12 10 10 12 11 10 12 10 10 11 10 14 12 6 10 9 9 9 8 8 11 11 11 11 10 7 7 7 8 9 5 2
8 8 8 7 8 8 8 9 9 9 8 8 9 9 9 10 11 11 12 12 11 12 12 13 14 15 15 15 15 15 15 16 16 16 16 16 17 16 16 14 14 14 14 13 12 11 10 11 13 11 9 8 8 19 18 10 4 6 13 12 9 10 10 14 13 13 13 10 11 10 7 9 11 13 11 12 11 11 11 9 9 9 9 7 7
7 8 8 7 8 9 9 10 9 8 8 9 9 9 9 10 11 11 12 12 12 12 12 12 14 15 15 15 15 15 15 15 16 16 16 16 16 16 16 15 14 13 13 12 13 12 12 12 12 12 11 10 10 19 21 18 10 6 7 6 9 11 11 11 7 6 6 7 9 9 11 10 11 10 10 10 10 11 11 11 10 8 7 5 5
6 6 6 6 6 8 9 9 9 9 8 8 9 9 9 10 11 11 12 12 13 13 13 13 13 15 15 15 15 15 15 15 15 15 16 16 16 16 15 14 14 14 15 14 12 12 11 10 11 11 11 10 10 16 21 20 15 11 7 6 8 11 9 8 7 5 5 5 6 8 8 8 8 9 12 14 10 11 12 12 11 11 7 6 6
6 5 6 7 7 7 9 9 9 10 10 9 9 10 10 10 11 11 12 12 13 14 14 13 13 14 14 14 15 15 15 15 15 15 14 14 14 13 14 12 13 14 15 15 14 12 12 12 13 14 12 10 11 13 19 21 19 11 6 9 8 9 9 8 6 4 5 5 4 6 6 9 8 4 10 14 14 13 12 12 12 11 9 8 7
5 6 6 6 6 7 9 9 10 11 10 9 10 11 11 11 11 11 11 12 13 13 14 14 13 13 14 14 14 15 14 14 15 15 15 15 13 13 13 12 13 13 13 12 13 13 14 13 14 14 19 13 9 12 18 21 20 14 7 6 8 6 8 5 4 5 4 4 5 2 7 3 12 11 14 15 14 14 11 12 12 11 10 9 9
6 5 4 5 5 6 8 9 10 10 9 10 10 10 11 11 11 11 11 12 13 12 12 13 13 13 13 13 13 14 14 14 14 14 14 14 14 13 13 12 12 12 12 12 12 14 16 14 14 15 13 14 14 13 17 21 22 19 11 6 8 8 8 7 6 6 6 4 5 5 3 7 7 16 18 17 17 8 5 12 11 11 11 11 11
6 6 4 5 6 6 6 8 8 9 9 9 9 10 11 11 11 11 12 12 12 12 12 12 12 13 13 14 13 14 15 15 14 14 13 13 13 14 14 14 12 11 11 12 13 12 12 13 13 13 13 12 14 14 14 22 22 22 17 8 5 7 7 3 3 1 2 5 5 4 4 6 5 12 14 13 7 4 8 9 10 10 9 12 13
5 3 4 4 4 5 5 7 8 9 9 9 10 10 11 11 11 13 12 11 11 11 11 12 12 13 13 14 14 13 13 13 14 14 14 14 14 14 14 14 12 12 13 13 13 12 11 12 12 14 14 13 14 18 12 18 22 21 21 15 7 7 8 6 6 6 6 5 4 4 4 7 10 9 9 9 10 11 15 4 9 15 17 14 10
4 5 5 3 5 5 6 6 7 8 8 9 10 11 11 11 12 12 11 11 11 11 11 11 12 13 13 13 14 15 13 12 13 14 14 14 13 13 13 14 14 15 15 15 14 12 11 11 12 12 13 14 14 12 18 16 21 22 22 19 14 9 13 10 10 9 8 7 7 7 7 10 14 14 13 14 13 15 13 10 15 15 13 11 10
5 5 5 6 6 5 5 6 5 6 7 8 9 10 10 11 12 10 10 11 11 11 10 10 11 12 13 13 13 14 14 13 14 14 14 14 15 14 14 12 13 13 14 14 14 14 13 12 12 11 13 14 14 13 16 18 16 20 20 22 20 18 14 11 10 9 8 8 9 9 9 14 15 17 18 17 16 14 12 15 15 15 13 9 7
6 6 4 5 7 6 6 6 6 7 7 7 8 9 10 11 10 10 10 11 11 11 11 10 10 12 12 12 12 13 14 14 14 14 14 14 15 15 14 14 13 13 13 13 13 13 13 13 12 12 11 12 13 15 14 14 18 16 18 19 20 20 17 17 13 9 9 9 13 15 17 18 17 16 17 17 15 16 18 17 16 13 10 8 8
6 5 4 6 7 7 7 7 7 7 6 6 7 8 9 9 9 9 10 10 11 11 11 11 11 11 12 12 13 13 13 15 15 14 14 14 14 14 15 14 15 14 13 13 13 13 13 13 13 12 11 11 12 12 14 15 13 13 13 18 18 16 15 17 17 15 16 18 18 19 19 18 16 13 12 11 10 11 16 18 18 15 9 8 7
6 4 3 5 6 7 8 7 7 7 6 7 7 7 8 8 8 9 9 10 10 11 11 11 11 11 11 12 13 12 11 12 13 14 14 13 13 13 13 13 14 15 14 13 13 12 12 13 13 11 10 12 13 14 15 15 13 10 10 10 10 9 12 13 11 10 11 11 14 14 13 15 15 18 16 15 13 12 12 11 10 10 9 7 7
6 5 5 6 7 8 8 7 7 6 6 7 7 7 8 8 7 8 8 9 9 10 11 11 12 11 11 11 11 11 12 11 11 10 11 13 13 13 12 12 12 12 13 14 13 12 12 12 12 11 11 12 12 12 13 13 13 12 9 8 9 9 9 9 9 8 8 10 11 11 14 11 11 12 12 11 10 9 9 9 10 9 8 9 10
8 7 7 7 7 7 8 7 7 6 6 6 6 6 7 8 7 7 8 9 9 9 10 11 11 11 11 10 11 11 11 11 11 10 7 9 10 12 13 10 10 9 9 10 12 12 12 11 10 10 10 10 10 10 9 10 9 12 11 11 10 8 8 8 11 12 8 10 10 11 11 11 11 9 9 9 8 9 8 9 10 8 8 7 7
7 6 7 8 7 8 8 8 7 7 7 6 6 7 7 7 7 6 8 9 9 9 9 9 10 11 11 11 11 11 11 11 11 11 8 5 5 9 9 10 9 6 7 9 8 9 9 10 10 9 8 8 8 8 10 11 10 11 13 14 14 15 14 12 15 18 12 10 10 10 10 9 9 9 8 8 8 8 8 8 8 10 9 8 8
7 7 8 8 8 8 8 8 7 7 7 7 7 7 7 7 6 6 7 8 9 8 8 8 9 9 9 10 10 11 11 11 11 11 11 10 5 6 6 10 11 10 10 8 10 10 12 13 11 10 7 9 10 11 12 11 11 11 10 10 11 11 12 13 12 8 9 8 7 7 6 7 7 7 6 5 6 6 5 5 6 6 6 6 5
Wind_Direction
48 49 54 65 81 98 101 103 108 117 117 187 186 181 182 188 164 164 159 167 175 185 196 201 197 206 215 218 230 234 234 237 239 240 245 245 247 237 226 211 211 218 217 221 229 197 194 200 218 251 235 222 215 216 213 211 203 205 205 203 204 198 184 180 168 171 158 154 167 178 192 195 187 181 190 194 191 180 178 182 176 177 173 177 163
58 58 61 68 73 76 82 76 65 82 63 19 342 271 250 186 199 140 148 163 191 212 205 212 220 221 220 225 234 240 235 236 242 245 245 244 247 242 237 230 218 215 217 218 214 209 200 205 199 210 229 252 258 240 220 215 204 206 200 200 204 201 196 181 174 178 180 180 178 179 187 187 191 189 197 199 191 176 182 180 176 188 177 176 159
42 47 63 67 71 72 77 66 64 69 77 65 48 110 60 257 289 307 283 212 192 209 211 213 214 224 229 233 235 238 243 255 255 252 250 244 239 238 238 238 231 226 221 219 213 212 200 220 207 203 202 206 233 245 246 213 203 211 201 203 194 208 212 188 184 195 192 189 186 186 187 181 189 200 206 208 191 185 185 189 182 194 184 180 173
44 34 31 41 43 39 35 37 44 58 68 77 41 346 317 283 334 276 228 255 244 213 237 254 245 237 236 249 242 247 246 235 246 244 241 242 236 232 229 222 230 238 235 222 220 213 205 205 190 183 198 195 195 193 229 246 213 214 206 208 206 204 210 198 192 203 240 184 189 201 187 192 182 198 190 189 192 186 202 194 192 195 186 186 164
41 34 32 31 35 37 32 26 29 34 32 27 18 14 356 359 320 277 294 253 252 238 220 244 235 223 231 240 258 254 249 248 244 242 233 235 236 231 228 222 221 229 237 231 221 218 206 203 202 202 199 201 196 196 204 223 235 213 204 208 213 218 203 201 192 200 213 207 203 197 141 206 204 180 187 177 185 193 199 210 180 210 191 193 185
43 41 36 32 32 34 34 29 29 29 29 28 30 30 26 24 23 18 26 32 9 270 236 228 219 226 223 227 220 214 239 247 251 252 235 227 237 241 239 227 224 227 231 233 233 233 224 211 199 204 205 203 197 197 191 211 223 214 211 200 213 222 218 198 195 198 216 209 245 294 302 238 197 166 164 180 188 205 196 210 188 202 186 208 190
42 42 36 33 31 32 32 29 29 31 28 18 17 18 28 34 28 22 24 6 349 290 233 227 237 240 245 256 266 252 249 253 260 273 274 266 255 247 244 241 237 234 235 225 225 236 233 223 202 207 214 206 197 198 192 204 209 218 212 205 218 233 232 212 201 197 205 211 214 228 221 170 199 198 194 147 181 208 221 198 198 195 198 201 198
34 33 32 32 31 31 30 28 27 27 28 28 25 21 19 21 14 17 25 14 15 358 302 233 238 234 240 249 249 253 255 266 264 263 264 266 269 264 256 248 240 244 245 238 232 235 227 225 215 208 211 208 198 197 201 196 200 213 215 214 208 195 254 232 205 199 197 204 205 214 210 222 218 220 203 188 186 178 192 204 193 197 194 210 205
37 34 30 30 31 30 29 28 30 29 29 29 28 24 25 21 16 7 13 11 4 340 325 307 262 252 252 261 261 256 262 276 282 276 275 272 262 258 254 245 231 233 237 248 236 245 232 226 226 216 208 211 210 209 205 199 197 202 210 213 193 197 206 232 216 203 203 201 190 215 214 216 215 213 209 188 201 184 179 186 186 180 197 200 206
42 39 37 36 34 34 33 33 33 30 25 27 28 26 27 26 21 19 19 0 358 331 331 326 327 292 269 266 268 272 274 279 276 277 272 265 267 269 267 247 230 223 232 236 238 231 246 238 228 224 213 213 212 211 207 204 200 205 210 215 203 209 213 220 218 203 208 199 200 204 201 204 213 207 207 213 206 179 190 187 183 176 189 190 192
38 36 36 35 33 32 29 33 32 29 26 23 22 21 20 22 18 19 18 8 355 350 343 344 333 336 316 292 280 277 278 277 279 275 276 278 273 270 266 264 243 237 228 232 236 234 241 247 233 227 219 208 210 209 207 201 198 201 203 219 208 217 216 222 216 231 214 211 202 201 204 203 201 205 200 206 212 207 199 187 188 189 187 179 189
34 33 31 29 28 28 27 27 23 22 20 19 19 14 14 15 14 12 18 13 3 357 347 343 336 330 317 309 300 296 299 296 294 289 281 278 273 267 270 264 258 253 236 234 237 230 233 245 237 232 225 209 204 206 203 203 201 199 201 199 203 213 224 252 213 217 214 198 207 216 211 209 200 211 200 202 207 205 208 189 186 190 183 194 175
30 27 25 24 22 20 20 19 20 17 14 13 11 11 10 8 8 5 9 6 3 360 351 351 345 338 331 319 302 293 287 284 280 276 276 271 269 270 269 270 269 257 244 243 240 226 223 232 235 228 224 217 203 204 199 201 201 196 201 209 208 203 208 221 252 223 215 216 203 208 215 211 196 215 205 198 207 210 205 198 185 183 187 196 169
29 27 24 21 19 17 17 16 16 13 11 11 7 5 8 7 359 357 355 356 352 352 344 346 352 346 333 325 317 302 291 285 279 275 272 276 276 272 270 273 273 265 246 237 230 235 224 225 227 225 221 218 209 202 203 200 198 200 196 203 207 207 208 204 218 228 212 222 294 224 205 209 213 93 257 235 204 207 201 202 185 182 184 197 164
30 29 27 22 19 18 17 16 14 11 8 9 6 3 355 0 359 353 348 351 348 347 344 343 342 343 339 330 325 315 299 294 288 282 275 267 262 257 256 257 256 260 254 237 227 227 229 231 231 223 210 202 202 206 204 198 199 209 206 200 205 207 203 213 242 226 206 199 216 244 214 217 201 165 212 219 200 207 204 193 192 177 181 203 176
32 32 31 28 26 22 20 17 16 12 10 10 8 2 1 355 352 351 353 346 348 347 346 342 339 337 338 339 331 325 311 288 278 274 274 272 267 261 260 255 255 257 255 245 239 231 225 227 230 227 221 202 196 199 202 201 191 204 206 201 205 206 207 206 219 223 212 195 202 232 232 216 207 197 202 198 212 196 208 198 198 193 184 186 191
34 34 32 29 26 28 27 25 22 18 14 13 11 9 9 3 1 354 354 353 353 350 348 340 339 338 339 339 338 331 325 319 308 294 283 276 269 264 261 260 260 261 260 253 247 241 240 237 231 224 218 202 197 198 203 212 203 204 209 206 209 207 212 211 216 226 214 205 214 227 238 231 199 196 211 198 207 214 207 206 203 201 192 193 187
40 40 33 23 21 23 30 31 29 24 20 17 16 12 15 9 10 3 1 359 358 356 347 345 343 338 338 338 336 334 330 322 315 306 294 284 277 270 264 264 264 261 257 252 253 250 240 232 232 221 217 210 204 199 200 209 213 208 204 205 208 209 216 211 211 225 218 207 210 226 216 234 205 195 196 213 203 206 216 208 207 207 197 179 207
42 37 26 23 22 21 25 25 23 25 24 22 20 17 14 12 11 7 5 7 3 1 358 354 349 346 340 336 333 331 329 325 321 320 306 290 285 281 280 277 275 266 261 257 249 244 237 230 229 228 219 214 212 202 194 209 210 209 207 205 206 208 216 218 219 214 208 202 207 232 240 231 227 196 202 200 206 202 208 217 207 215 211 202 213
41 34 24 23 23 22 21 17 15 15 19 21 20 19 17 12 8 6 1 1 360 1 358 356 355 351 346 338 334 330 326 325 328 327 325 311 293 290 287 288 284 279 264 257 254 250 244 234 230 227 220 216 215 204 200 202 209 212 208 195 214 213 219 221 220 212 210 191 209 212 223 214 242 217 206 200 200 204 207 214 211 211 216 219 238
42 28 28 27 23 20 21 18 16 16 17 13 13 15 12 9 10 8 2 3 0 2 358 357 353 355 350 348 340 334 330 329 325 326 323 319 315 304 297 291 284 276 273 263 255 252 253 248 235 225 217 206 203 194 192 203 205 212 205 205 206 207 215 217 213 214 207 215 212 220 222 212 211 214 205 199 201 200 201 210 218 206 212 211 203
49 47 36 26 23 21 24 21 20 19 16 14 15 12 13 13 14 9 6 6 2 0 357 355 358 357 354 351 349 342 337 330 326 323 322 324 323 319 306 295 290 283 274 268 260 253 248 249 251 242 222 206 196 188 191 198 203 207 209 203 207 208 214 215 215 215 201 211 209 216 215 214 214 215 212 207 201 207 203 207 208 211 207 206 208
56 47 37 32 28 25 26 23 23 22 19 15 16 17 16 12 11 9 6 4 0 358 354 356 359 353 354 351 351 348 345 338 333 328 328 326 322 319 316 300 283 275 266 262 258 255 253 249 245 244 230 215 208 195 184 181 208 207 198 198 198 209 214 215 212 209 206 208 211 214 215 212 207 216 215 215 211 214 220 209 206 205 211 206 203
63 52 41 36 33 30 27 24 22 20 18 16 15 15 17 15 11 6 5 2 1 357 355 355 358 356 354 353 351 348 346 347 338 334 330 327 321 316 313 308 292 275 269 263 259 258 251 244 241 241 230 218 203 189 200 195 206 210 204 200 197 204 212 211 214 215 211 210 210 208 212 204 190 213 217 218 216 215 213 211 207 200 211 206 207
58 47 43 39 36 32 28 24 22 17 17 15 13 14 13 12 12 9 5 4 2 356 355 357 357 357 358 357 351 350 349 346 342 334 331 327 323 315 307 304 301 285 268 263 256 251 253 241 234 227 231 211 199 193 200 198 202 219 208 202 202 206 207 208 215 212 213 208 208 211 209 200 207 216 206 216 210 212 208 211 208 204 202 203 198
55 52 46 41 37 34 31 25 21 18 14 12 12 12 10 10 12 11 8 5 2 358 358 358 357 358 358 357 355 353 350 348 345 340 336 331 324 321 316 307 301 293 281 267 259 249 244 246 238 235 231 215 202 206 206 190 183 205 217 213 195 210 215 215 215 210 202 195 205 210 208 201 211 213 207 212 210 207 204 207 208 208 202 200 199
58 53 50 46 42 37 31 28 23 19 15 13 13 11 10 6 6 4 5 6 2 358 359 357 360 0 0 359 357 356 351 349 347 341 339 337 332 325 315 311 310 301 289 269 260 252 244 247 242 232 223 228 217 210 208 201 192 190 202 208 201 207 217 217 216 214 195 199 205 207 213 209 222 206 209 212 205 200 200 203 204 208 211 204 195
64 58 52 48 44 39 34 29 26 22 17 17 14 14 9 5 3 2 4 4 5 4 2 3 3 3 2 360 359 357 353 350 350 345 342 343 339 334 326 314 306 304 294 281 266 261 254 244 242 244 231 223 222 217 207 195 192 191 202 200 194 207 216 218 216 214 209 205 210 212 191 203 211 211 214 207 203 196 193 200 201 205 211 212 200
63 62 56 49 46 41 35 30 28 23 22 19 15 13 11 7 5 3 3 2 3 5 8 6 7 6 4 2 1 359 355 358 354 351 348 347 344 341 336 326 310 302 301 288 272 267 268 258 243 243 234 224 226 221 211 196 202 198 198 197 203 210 211 212 215 210 209 206 220 209 192 203 216 214 221 247 226 194 194 193 194 196 204 209 208
63 59 55 48 44 41 35 32 25 23 19 18 15 12 10 8 5 3 2 1 3 4 8 10 8 6 5 3 3 1 0 2 0 357 355 351 351 347 344 342 336 328 310 295 283 270 264 259 253 248 247 238 225 221 205 192 199 201 203 204 206 212 210 213 212 210 218 201 210 211 189 204 213 224 194 162 162 160 189 201 191 195 199 206 201
68 59 49 42 40 35 32 27 25 21 19 16 13 12 11 10 7 3 1 358 3 5 10 12 11 8 6 5 6 5 3 6 5 3 360 357 356 353 350 347 343 338 335 324 297 286 277 264 253 254 251 245 236 230 199 186 191 194 201 191 202 215 216 220 216 204 191 215 215 209 200 186 188 169 155 154 156 169 191 217 259 256 256 203 205
71 62 52 44 38 35 27 23 22 20 19 16 11 11 12 10 7 4 1 358 3 8 10 12 12 11 10 9 8 7 8 8 8 8 6 4 1 360 355 350 350 349 346 344 341 312 285 270 260 250 260 250 248 256 214 199 194 186 183 187 203 203 220 234 226 193 200 208 203 203 213 190 196 195 187 169 168 183 194 203 212 233 269 274 238
72 67 59 46 37 32 25 18 19 18 17 16 11 11 11 10 8 8 3 2 5 8 9 13 13 13 12 11 10 11 10 9 9 9 9 9 7 4 2 359 357 353 351 4 3 4 355 346 332 300 252 231 254 279 217 209 206 197 186 193 203 212 210 233 255 251 203 200 205 200 200 195 196 171 197 197 196 182 188 212 218 211 284 295 291
76 64 53 46 38 30 22 19 15 14 13 13 15 10 13 14 12 12 9 8 6 8 11 13 15 14 14 12 12 13 12 11 10 11 11 12 12 10 7 6 4 6 6 5 10 10 5 5 3 357 345 345 50 16 17 10 331 296 229 199 210 215 211 212 225 226 225 211 199 216 193 168 175 169 195 191 186 185 171 174 188 202 212 172 221
82 71 61 50 42 34 28 22 16 12 13 14 15 12 19 19 17 17 15 12 10 10 13 14 16 16 15 13 13 14 15 14 13 13 14 15 15 13 13 11 11 11 11 16 8 7 11 8 11 4 352 351 35 15 1 349 12 318 301 276 214 223 231 227 210 206 210 207 188 180 191 189 171 178 195 188 184 180 182 186 190 195 202 201 204
75 69 57 49 38 35 29 26 22 18 21 16 15 16 22 24 21 20 19 17 16 15 15 13 17 17 16 15 14 14 15 16 17 16 16 17 17 18 17 15 17 17 16 16 19 18 14 18 18 13 2 351 6 14 357 343 334 302 299 274 241 232 228 230 224 208 206 212 214 201 191 176 183 188 176 188 199 182 180 181 182 176 170 117 68
69 56 53 36 34 39 35 32 31 26 22 24 20 23 26 26 25 23 22 22 21 21 17 15 16 16 16 16 15 16 14 14 16 16 17 18 18 19 22 22 22 25 25 22 20 22 21 14 15 22 18 5 2 10 356 349 340 322 293 255 246 243 235 227 214 185 196 204 207 199 185 180 164 199 153 174 171 185 181 180 176 175 160 130 104
60 56 54 45 37 41 45 36 32 34 30 34 32 29 30 30 27 25 24 24 23 23 20 17 16 17 16 16 17 17 18 17 18 18 12 10 16 19 20 21 25 26 28 28 26 27 26 22 20 22 26 25 6 5 2 354 344 339 300 280 259 239 232 221 187 165 181 176 78 26 189 179 176 134 163 166 174 187 180 173 165 153 141 130 117
71 49 52 52 44 40 41 41 36 37 34 34 37 35 30 31 29 28 25 25 24 22 21 20 18 16 16 18 17 17 17 17 21 22 19 17 11 10 11 15 21 23 25 28 30 30 26 26 24 22 20 22 19 14 10 360 352 351 356 289 285 251 246 218 189 165 162 155 136 104 20 130 176 177 171 177 181 195 179 170 163 155 148 142 138
73 61 55 67 51 53 46 41 36 35 32 32 32 37 36 32 30 28 27 27 24 22 21 23 24 22 20 19 19 19 20 19 16 18 22 23 22 19 13 6 10 14 17 22 29 31 30 23 20 22 22 16 17 25 18 5 4 351 356 344 315 296 245 218 199 181 155 153 151 151 120 14 192 156 173 174 185 239 263 171 168 162 154 143 147
80 60 21 58 56 49 49 45 41 35 34 33 34 34 35 34 29 28 29 25 24 26 24 25 25 26 24 23 20 19 21 22 20 21 20 22 22 21 21 23 17 12 10 12 15 20 27 26 23 20 17 19 20 16 23 22 11 4 355 10 350 358 343 300 216 82 166 143 149 145 131 56 135 157 163 167 168 311 308 178 172 170 151 136 143
63 31 28 52 64 64 56 53 44 37 35 34 35 35 33 31 28 28 25 23 21 23 27 26 25 27 25 25 22 17 17 21 22 22 21 22 20 21 22 22 22 19 17 16 10 8 12 20 26 28 24 20 15 16 13 30 25 15 6 8 37 21 3 0 60 44 30 43 57 73 88 81 93 95 94 74 45 45 32 61 79 93 104 120 130
92 92 71 60 86 78 64 51 44 37 35 32 35 34 30 27 29 24 22 22 23 22 23 26 25 25 25 24 25 22 19 19 22 24 27 24 18 19 17 17 20 21 21 20 18 13 10 12 18 25 27 24 18 12 14 21 31 28 19 15 25 47 55 52 52 44 38 32 34 54 67 78 84 82 83 84 80 71 71 77 82 77 81 97 122
106 83 65 66 76 83 82 63 50 38 32 32 29 33 26 25 25 19 20 23 23 23 19 22 26 26 23 25 23 27 24 21 24 24 26 28 26 22 23 18 17 21 20 20 18 16 16 15 13 13 17 17 19 21 14 13 21 34 32 28 26 29 53 71 72 69 56 45 48 50 63 65 74 81 79 76 75 77 82 74 73 77 67 60 91
87 75 65 70 72 75 74 68 53 42 35 29 29 28 24 22 19 13 17 23 23 23 20 21 24 25 25 27 22 28 29 24 25 26 24 25 28 26 24 22 21 16 17 19 19 19 20 18 17 14 8 7 10 14 16 12 11 19 37 36 35 32 31 59 70 60 62 71 71 64 63 68 68 67 75 80 75 70 71 69 65 63 74 84 75
90 79 51 65 77 74 70 63 52 37 33 32 24 25 23 18 13 13 15 23 22 22 24 23 23 26 24 28 27 23 31 32 29 28 29 27 24 26 24 22 21 19 17 18 19 17 19 23 26 21 15 11 9 8 11 13 8 10 23 36 37 26 37 52 65 72 70 67 67 64 57 52 51 52 60 58 57 59 68 67 63 57 54 56 60
83 69 72 75 72 73 70 61 51 36 29 25 23 24 24 17 14 12 16 23 25 20 25 25 26 25 26 25 29 20 20 30 31 32 31 28 26 27 30 22 19 17 15 15 18 18 17 19 23 25 30 26 20 16 14 16 12 10 16 20 38 34 25 38 47 48 55 61 58 62 69 66 67 56 49 52 53 47 50 54 57 58 59 53 49
82 79 74 80 76 74 64 53 44 32 28 26 23 21 22 20 13 19 17 19 29 27 26 27 25 25 27 23 26 23 19 26 26 31 28 29 29 29 32 30 18 12 12 14 10 14 10 11 13 17 14 23 28 24 16 7 10 15 15 23 27 32 35 33 31 29 43 57 62 56 56 53 53 52 45 42 42 42 47 51 58 60 65 72 76
89 80 72 69 66 60 52 42 31 20 19 25 28 23 19 21 19 26 20 20 24 28 30 31 31 22 27 26 24 25 24 22 24 41 67 42 41 40 33 48 40 29 22 13 19 18 9 360 2 21 8 1 7 11 353 328 3 20 25 25 22 18 14 27 37 33 34 39 47 50 47 46 47 52 52 51 45 46 47 49 49 49 56 53 47
95 88 87 84 68 56 41 29 24 18 23 28 30 28 21 18 23 28 25 21 17 26 29 30 32 30 18 22 24 25 23 23 24 22 47 111 6 21 58 54 62 66 38 38 35 37 14 10 13 42 49 21 2 348 334 342 5 19 24 28 28 25 25 33 37 34 38 46 40 45 45 45 42 43 47 46 43 27 25 30 29 40 37 38 42
95 92 83 71 63 49 38 33 30 29 37 36 35 24 20 22 29 35 28 25 15 23 27 28 26 30 23 11 25 22 23 24 23 23 22 27 87 108 67 92 109 89 80 71 50 43 34 30 25 24 62 65 22 15 18 17 16 21 28 33 37 40 41 48 43 50 49 56 56 56 51 51 54 53 48 42 50 57 38 37 35 40 38 40 43